Weather in Topolnoye

Russia / Altai Krai     51°30′31″N   84°28′50″E
temp.,
°C
wind,
m/s
gust,
m/s
humid.,
%
clouds,
%
prec.,
mm/h
press.,
hPa
HPBL,
m
16 april, fri
fri1601:000s22925 0.0 102622
04:000s32905 0.0 102427
07:00+1s22886 0.0 102430
10:00+8sse11715 0.0 1020371
13:00+11nnw226246 0.0 10191250
16:00+11nnw235928 0.0 10171166
19:00+9nne11875 0.0 101710
22:00+3s22923 0.0 101928
17 april, sat
sat1701:00+3s328859 0.0 101835
04:00+2s3287100 0.0 101738
07:00+2s218899 0.3 101817
10:00+5w0193100 2.4 1017127
13:00+3nnw2297100 4.2 1018248
16:00+2nnw3399100 0.3 1019247
19:000nnw1299100 0.7 1022203
22:00−1n1198100 0.1 1023141
18 april, sun
sun1801:00−1n0097100 0.1 102299
04:000n009675 0.0 102148
07:00−2ssw119752 0.0 102129
10:00+4nnw127454 0.0 1018694
13:00+7nnw26493 0.0 10151387
16:00+9w6114739 0.0 10132051
19:00+7w4125832 0.0 10131463
22:00+3s347536 0.0 101365
19 april, mon
mon1901:00+8sw6155310 0.0 1008876
04:00+2nw3595100 0.4 1011174
07:00+2wnw2899100 6.1 1013582
10:00−3nnw4697100 3.6 1019452
13:00−3n4591100 7.0 1022728
16:00−3n3490100 2.1 1024780
19:00−5n3594100 4.3 1025650
22:00−7n1396100 1.1 1028209
20 april, tue
tue2001:00−8n2496100 1.6 1028353
04:00−8nnw2496100 0.8 1028354
07:00−9nnw2395100 1.4 1029319
10:00−7n2385100 0.6 1029858
13:00−6n3380100 1.1 10281115
16:00−5n3366100 0.4 10271315
19:00−6n3469100 0.5 10281012
22:00−11s119059 0.1 103110